Year,Month,Day,Hour,Minute,Value (Times are PST for windspeed in km/hr)
2006,12,14,00,00,5.20
2006,12,14,00,01,4.30
2006,12,14,00,02,1.40
2006,12,14,00,03,2.90
2006,12,14,00,04,3.50
2006,12,14,00,05,0.90
2006,12,14,00,06,0.00
2006,12,14,00,07,0.10
2006,12,14,00,08,0.20
2006,12,14,00,09,2.50
2006,12,14,00,10,1.20
2006,12,14,00,11,0.30
2006,12,14,00,12,0.30
2006,12,14,00,13,1.60
2006,12,14,00,14,0.70
2006,12,14,00,15,0.00
2006,12,14,00,16,0.00
2006,12,14,00,17,0.00
2006,12,14,00,18,0.00
2006,12,14,00,19,0.00
2006,12,14,00,20,0.00
2006,12,14,00,21,0.00
2006,12,14,00,22,0.00
2006,12,14,00,23,0.00
2006,12,14,00,24,0.00
2006,12,14,00,25,0.00
2006,12,14,00,26,0.00
2006,12,14,00,27,0.00
2006,12,14,00,28,0.00
2006,12,14,00,29,0.00
2006,12,14,00,30,1.10
2006,12,14,00,31,1.20
2006,12,14,00,32,1.60
2006,12,14,00,33,1.10
2006,12,14,00,34,0.10
2006,12,14,00,35,1.00
2006,12,14,00,36,0.90
2006,12,14,00,37,0.00
2006,12,14,00,38,0.30
2006,12,14,00,39,0.00
2006,12,14,00,40,0.00
2006,12,14,00,41,0.00
2006,12,14,00,42,0.00
2006,12,14,00,43,0.00
2006,12,14,00,44,0.00
2006,12,14,00,45,0.00
2006,12,14,00,46,0.00
2006,12,14,00,47,0.00
2006,12,14,00,48,0.30
2006,12,14,00,49,0.00
2006,12,14,00,50,0.00
2006,12,14,00,51,0.00
2006,12,14,00,52,0.00
2006,12,14,00,53,0.00
2006,12,14,00,54,0.00
2006,12,14,00,55,0.10
2006,12,14,00,56,0.00
2006,12,14,00,57,0.00
2006,12,14,00,58,0.60
2006,12,14,00,59,0.00
2006,12,14,01,00,0.00
2006,12,14,01,01,0.00
2006,12,14,01,02,0.00
2006,12,14,01,03,0.00
2006,12,14,01,04,0.00
2006,12,14,01,05,0.00
2006,12,14,01,06,0.00
2006,12,14,01,07,0.00
2006,12,14,01,08,0.00
2006,12,14,01,09,0.00
2006,12,14,01,10,0.00
2006,12,14,01,11,0.30
2006,12,14,01,12,0.00
2006,12,14,01,13,0.00
2006,12,14,01,14,1.00
2006,12,14,01,15,1.40
2006,12,14,01,16,1.70
2006,12,14,01,17,0.20
2006,12,14,01,18,0.00
2006,12,14,01,19,0.00
2006,12,14,01,20,0.00
2006,12,14,01,21,0.00
2006,12,14,01,22,0.00
2006,12,14,01,23,0.00
2006,12,14,01,24,0.00
2006,12,14,01,25,0.00
2006,12,14,01,26,0.00
2006,12,14,01,27,0.00
2006,12,14,01,28,0.00
2006,12,14,01,29,0.00
2006,12,14,01,30,0.10
2006,12,14,01,31,0.00
2006,12,14,01,32,0.00
2006,12,14,01,33,0.00
2006,12,14,01,34,0.10
2006,12,14,01,35,0.00
2006,12,14,01,36,0.00
2006,12,14,01,37,0.20
2006,12,14,01,38,0.50
2006,12,14,01,39,0.10
2006,12,14,01,40,0.00
2006,12,14,01,41,0.00
2006,12,14,01,42,0.00
2006,12,14,01,43,0.10
2006,12,14,01,44,0.00
2006,12,14,01,45,0.00
2006,12,14,01,46,0.10
2006,12,14,01,47,0.10
2006,12,14,01,48,0.00
2006,12,14,01,49,0.10
2006,12,14,01,50,0.00
2006,12,14,01,51,0.00
2006,12,14,01,52,0.00
2006,12,14,01,53,0.20
2006,12,14,01,54,0.80
2006,12,14,01,55,0.90
2006,12,14,01,56,1.60
2006,12,14,01,57,2.30
2006,12,14,01,58,2.60
2006,12,14,01,59,2.40
2006,12,14,02,00,3.20
2006,12,14,02,01,3.00
2006,12,14,02,02,2.10
2006,12,14,02,03,1.60
2006,12,14,02,04,1.40
2006,12,14,02,05,1.30
2006,12,14,02,06,0.20
2006,12,14,02,07,0.90
2006,12,14,02,08,2.00
2006,12,14,02,09,1.70
2006,12,14,02,10,3.20
2006,12,14,02,11,1.20
2006,12,14,02,12,0.80
2006,12,14,02,13,0.10
2006,12,14,02,14,1.10
2006,12,14,02,15,0.90
2006,12,14,02,16,0.20
2006,12,14,02,17,0.00
2006,12,14,02,18,0.00
2006,12,14,02,19,0.10
2006,12,14,02,20,0.00
2006,12,14,02,21,0.10
2006,12,14,02,22,1.50
2006,12,14,02,23,1.90
2006,12,14,02,24,0.60
2006,12,14,02,25,0.40
2006,12,14,02,26,0.60
2006,12,14,02,27,1.40
2006,12,14,02,28,1.50
2006,12,14,02,29,0.20
2006,12,14,02,30,0.50
2006,12,14,02,31,0.70
2006,12,14,02,32,0.30
2006,12,14,02,33,0.00
2006,12,14,02,34,0.80
2006,12,14,02,35,1.10
2006,12,14,02,36,1.90
2006,12,14,02,37,1.00
2006,12,14,02,38,0.10
2006,12,14,02,39,0.00
2006,12,14,02,40,0.10
2006,12,14,02,41,0.10
2006,12,14,02,42,0.00
2006,12,14,02,43,0.00
2006,12,14,02,44,0.00
2006,12,14,02,45,0.00
2006,12,14,02,46,0.00
2006,12,14,02,47,0.00
2006,12,14,02,48,0.00
2006,12,14,02,49,0.00
2006,12,14,02,50,0.00
2006,12,14,02,51,0.00
2006,12,14,02,52,0.00
2006,12,14,02,53,0.00
2006,12,14,02,54,0.00
2006,12,14,02,55,0.90
2006,12,14,02,56,0.30
2006,12,14,02,57,0.00
2006,12,14,02,58,0.00
2006,12,14,02,59,0.00
2006,12,14,03,00,0.00
2006,12,14,03,01,0.00
2006,12,14,03,02,0.00
2006,12,14,03,03,0.10
2006,12,14,03,04,0.00
2006,12,14,03,05,0.00
2006,12,14,03,06,0.00
2006,12,14,03,07,0.10
2006,12,14,03,08,0.10
2006,12,14,03,09,1.10
2006,12,14,03,10,0.20
2006,12,14,03,11,0.00
2006,12,14,03,12,0.00
2006,12,14,03,13,0.00
2006,12,14,03,14,0.00
2006,12,14,03,15,0.00
2006,12,14,03,16,0.00
2006,12,14,03,17,0.00
2006,12,14,03,18,0.00
2006,12,14,03,19,0.00
2006,12,14,03,20,0.00
2006,12,14,03,21,0.00
2006,12,14,03,22,0.00
2006,12,14,03,23,0.00
2006,12,14,03,24,0.00
2006,12,14,03,25,0.00
2006,12,14,03,26,0.00
2006,12,14,03,27,0.20
2006,12,14,03,28,0.00
2006,12,14,03,29,0.40
2006,12,14,03,30,1.10
2006,12,14,03,31,0.10
2006,12,14,03,32,0.00
2006,12,14,03,33,0.00
2006,12,14,03,34,0.00
2006,12,14,03,35,0.00
2006,12,14,03,36,0.60
2006,12,14,03,37,2.00
2006,12,14,03,38,1.10
2006,12,14,03,39,1.50
2006,12,14,03,40,1.00
2006,12,14,03,41,0.80
2006,12,14,03,42,0.20
2006,12,14,03,43,1.10
2006,12,14,03,44,0.20
2006,12,14,03,45,0.00
2006,12,14,03,46,0.10
2006,12,14,03,47,0.00
2006,12,14,03,48,0.00
2006,12,14,03,49,0.00
2006,12,14,03,50,0.00
2006,12,14,03,51,0.00
2006,12,14,03,52,0.00
2006,12,14,03,53,0.00
2006,12,14,03,54,0.00
2006,12,14,03,55,0.00
2006,12,14,03,56,0.00
2006,12,14,03,57,0.00
2006,12,14,03,58,0.00
2006,12,14,03,59,0.00
2006,12,14,04,00,0.00
2006,12,14,04,01,0.90
2006,12,14,04,02,0.00
2006,12,14,04,03,0.00
2006,12,14,04,04,0.10
2006,12,14,04,05,0.20
2006,12,14,04,06,4.70
2006,12,14,04,07,3.10
2006,12,14,04,08,3.60
2006,12,14,04,09,2.90
2006,12,14,04,10,5.30
2006,12,14,04,11,6.80
2006,12,14,04,12,7.60
2006,12,14,04,13,7.90
2006,12,14,04,14,9.10
2006,12,14,04,15,12.70
2006,12,14,04,16,9.80
2006,12,14,04,17,8.80
2006,12,14,04,18,9.60
2006,12,14,04,19,9.60
2006,12,14,04,20,10.90
2006,12,14,04,21,7.70
2006,12,14,04,22,8.70
2006,12,14,04,23,8.10
2006,12,14,04,24,7.50
2006,12,14,04,25,8.00
2006,12,14,04,26,9.80
2006,12,14,04,27,7.60
2006,12,14,04,28,8.10
2006,12,14,04,29,8.30
2006,12,14,04,30,9.30
2006,12,14,04,31,7.70
2006,12,14,04,32,8.10
2006,12,14,04,33,9.50
2006,12,14,04,34,4.90
2006,12,14,04,35,8.70
2006,12,14,04,36,13.00
2006,12,14,04,37,8.10
2006,12,14,04,38,8.20
2006,12,14,04,39,9.10
2006,12,14,04,40,8.10
2006,12,14,04,41,7.50
2006,12,14,04,42,8.60
2006,12,14,04,43,7.30
2006,12,14,04,44,6.00
2006,12,14,04,45,9.90
2006,12,14,04,46,9.70
2006,12,14,04,47,8.70
2006,12,14,04,48,10.90
2006,12,14,04,49,10.10
2006,12,14,04,50,9.20
2006,12,14,04,51,6.80
2006,12,14,04,52,9.30
2006,12,14,04,53,7.20
2006,12,14,04,54,8.40
2006,12,14,04,55,8.80
2006,12,14,04,56,9.00
2006,12,14,04,57,8.30
2006,12,14,04,58,7.30
2006,12,14,04,59,5.60
2006,12,14,05,00,7.50
2006,12,14,05,01,7.20
2006,12,14,05,02,12.50
2006,12,14,05,03,7.60
2006,12,14,05,04,12.60
2006,12,14,05,05,8.90
2006,12,14,05,06,8.70
2006,12,14,05,07,10.10
2006,12,14,05,08,11.60
2006,12,14,05,09,12.00
2006,12,14,05,10,13.80
2006,12,14,05,11,11.90
2006,12,14,05,12,7.70
2006,12,14,05,13,12.30
2006,12,14,05,14,13.00
2006,12,14,05,15,15.00
2006,12,14,05,16,11.40
2006,12,14,05,17,12.30
2006,12,14,05,18,9.90
2006,12,14,05,19,7.20
2006,12,14,05,20,12.00
2006,12,14,05,21,10.30
2006,12,14,05,22,10.90
2006,12,14,05,23,7.50
2006,12,14,05,24,8.00
2006,12,14,05,25,9.10
2006,12,14,05,26,7.20
2006,12,14,05,27,9.70
2006,12,14,05,28,14.00
2006,12,14,05,29,11.40
2006,12,14,05,30,8.00
2006,12,14,05,31,7.50
2006,12,14,05,32,6.30
2006,12,14,05,33,9.30
2006,12,14,05,34,9.10
2006,12,14,05,35,11.00
2006,12,14,05,36,16.20
2006,12,14,05,37,18.60
2006,12,14,05,38,16.00
2006,12,14,05,39,16.40
2006,12,14,05,40,13.90
2006,12,14,05,41,12.40
2006,12,14,05,42,11.30
2006,12,14,05,43,13.30
2006,12,14,05,44,9.00
2006,12,14,05,45,13.40
2006,12,14,05,46,17.10
2006,12,14,05,47,10.60
2006,12,14,05,48,8.90
2006,12,14,05,49,11.70
2006,12,14,05,50,6.40
2006,12,14,05,51,9.60
2006,12,14,05,52,9.10
2006,12,14,05,53,9.40
2006,12,14,05,54,11.30
2006,12,14,05,55,10.50
2006,12,14,05,56,12.60
2006,12,14,05,57,11.30
2006,12,14,05,58,11.80
2006,12,14,05,59,9.70
2006,12,14,06,00,6.20
2006,12,14,06,01,7.00
2006,12,14,06,02,10.90
2006,12,14,06,03,9.60
2006,12,14,06,04,8.40
2006,12,14,06,05,12.80
2006,12,14,06,06,8.20
2006,12,14,06,07,7.70
2006,12,14,06,08,8.00
2006,12,14,06,09,7.80
2006,12,14,06,10,10.00
2006,12,14,06,11,7.10
2006,12,14,06,12,6.80
2006,12,14,06,13,8.00
2006,12,14,06,14,7.80
2006,12,14,06,15,7.70
2006,12,14,06,16,6.90
2006,12,14,06,17,8.70
2006,12,14,06,18,6.10
2006,12,14,06,19,5.40
2006,12,14,06,20,7.70
2006,12,14,06,21,4.20
2006,12,14,06,22,4.40
2006,12,14,06,23,9.20
2006,12,14,06,24,7.70
2006,12,14,06,25,11.40
2006,12,14,06,26,8.40
2006,12,14,06,27,9.70
2006,12,14,06,28,6.50
2006,12,14,06,29,5.40
2006,12,14,06,30,8.00
2006,12,14,06,31,6.00
2006,12,14,06,32,6.40
2006,12,14,06,33,7.00
2006,12,14,06,34,9.20
2006,12,14,06,35,8.70
2006,12,14,06,36,8.90
2006,12,14,06,37,7.10
2006,12,14,06,38,8.10
2006,12,14,06,39,8.20
2006,12,14,06,40,7.20
2006,12,14,06,41,6.50
2006,12,14,06,42,4.30
2006,12,14,06,43,6.10
2006,12,14,06,44,7.70
2006,12,14,06,45,6.50
2006,12,14,06,46,6.40
2006,12,14,06,47,6.50
2006,12,14,06,48,5.90
2006,12,14,06,49,7.10
2006,12,14,06,50,5.20
2006,12,14,06,51,6.00
2006,12,14,06,52,6.90
2006,12,14,06,53,8.10
2006,12,14,06,54,4.70
2006,12,14,06,55,6.50
2006,12,14,06,56,5.60
2006,12,14,06,57,7.20
2006,12,14,06,58,6.90
2006,12,14,06,59,7.50
2006,12,14,07,00,4.50
2006,12,14,07,01,6.80
2006,12,14,07,02,6.80
2006,12,14,07,03,6.50
2006,12,14,07,04,6.50
2006,12,14,07,05,7.70
2006,12,14,07,06,6.00
2006,12,14,07,07,6.10
2006,12,14,07,08,8.50
2006,12,14,07,09,10.50
2006,12,14,07,10,9.40
2006,12,14,07,11,6.20
2006,12,14,07,12,9.20
2006,12,14,07,13,8.50
2006,12,14,07,14,6.50
2006,12,14,07,15,6.90
2006,12,14,07,16,7.00
2006,12,14,07,17,8.40
2006,12,14,07,18,9.80
2006,12,14,07,19,6.30
2006,12,14,07,20,5.10
2006,12,14,07,21,6.50
2006,12,14,07,22,6.40
2006,12,14,07,23,7.50
2006,12,14,07,24,9.60
2006,12,14,07,25,9.90
2006,12,14,07,26,8.30
2006,12,14,07,27,8.10
2006,12,14,07,28,6.80
2006,12,14,07,29,8.70
2006,12,14,07,30,8.50
2006,12,14,07,31,7.00
2006,12,14,07,32,8.70
2006,12,14,07,33,7.70
2006,12,14,07,34,9.70
2006,12,14,07,35,10.70
2006,12,14,07,36,7.70
2006,12,14,07,37,8.30
2006,12,14,07,38,7.40
2006,12,14,07,39,9.20
2006,12,14,07,40,10.70
2006,12,14,07,41,10.20
2006,12,14,07,42,9.80
2006,12,14,07,43,8.70
2006,12,14,07,44,8.80
2006,12,14,07,45,10.80
2006,12,14,07,46,12.40
2006,12,14,07,47,10.80
2006,12,14,07,48,8.90
2006,12,14,07,49,12.00
2006,12,14,07,50,14.50
2006,12,14,07,51,11.60
2006,12,14,07,52,7.20
2006,12,14,07,53,7.50
2006,12,14,07,54,11.20
2006,12,14,07,55,9.70
2006,12,14,07,56,11.40
2006,12,14,07,57,13.70
2006,12,14,07,58,10.60
2006,12,14,07,59,7.60
2006,12,14,08,00,8.90
2006,12,14,08,01,7.70
2006,12,14,08,02,7.60
2006,12,14,08,03,8.60
2006,12,14,08,04,9.30
2006,12,14,08,05,13.10
2006,12,14,08,06,8.00
2006,12,14,08,07,9.00
2006,12,14,08,08,10.50
2006,12,14,08,09,11.40
2006,12,14,08,10,14.80
2006,12,14,08,11,10.40
2006,12,14,08,12,9.60
2006,12,14,08,13,9.60
2006,12,14,08,14,12.90
2006,12,14,08,15,12.90
2006,12,14,08,16,14.00
2006,12,14,08,17,11.10
2006,12,14,08,18,8.90
2006,12,14,08,19,8.50
2006,12,14,08,20,7.20
2006,12,14,08,21,7.90
2006,12,14,08,22,9.70
2006,12,14,08,23,6.80
2006,12,14,08,24,6.40
2006,12,14,08,25,6.40
2006,12,14,08,26,6.40
2006,12,14,08,27,8.30
2006,12,14,08,28,12.40
2006,12,14,08,29,8.20
2006,12,14,08,30,11.90
2006,12,14,08,31,14.80
2006,12,14,08,32,9.60
2006,12,14,08,33,7.70
2006,12,14,08,34,10.50
2006,12,14,08,35,11.00
2006,12,14,08,36,16.10
2006,12,14,08,37,14.40
2006,12,14,08,38,16.20
2006,12,14,08,39,9.70
2006,12,14,08,40,14.80
2006,12,14,08,41,16.70
2006,12,14,08,42,10.50
2006,12,14,08,43,11.40
2006,12,14,08,44,12.20
2006,12,14,08,45,17.00
2006,12,14,08,46,9.60
2006,12,14,08,47,9.30
2006,12,14,08,48,12.00
2006,12,14,08,49,10.80
2006,12,14,08,50,8.90
2006,12,14,08,51,7.70
2006,12,14,08,52,7.80
2006,12,14,08,53,8.90
2006,12,14,08,54,11.80
2006,12,14,08,55,13.80
2006,12,14,08,56,17.70
2006,12,14,08,57,17.70
2006,12,14,08,58,15.60
2006,12,14,08,59,10.50
2006,12,14,09,00,15.30
2006,12,14,09,01,12.10
2006,12,14,09,02,10.60
2006,12,14,09,03,10.90
2006,12,14,09,04,9.80
2006,12,14,09,05,8.50
2006,12,14,09,06,13.40
2006,12,14,09,07,13.50
2006,12,14,09,08,17.70
2006,12,14,09,09,17.50
2006,12,14,09,10,10.20
2006,12,14,09,11,14.00
2006,12,14,09,12,10.70
2006,12,14,09,13,11.50
2006,12,14,09,14,10.40
2006,12,14,09,15,11.60
2006,12,14,09,16,8.00
2006,12,14,09,17,10.80
2006,12,14,09,18,9.30
2006,12,14,09,19,9.80
2006,12,14,09,20,11.40
2006,12,14,09,21,7.90
2006,12,14,09,22,8.90
2006,12,14,09,23,11.80
2006,12,14,09,24,12.60
2006,12,14,09,25,13.90
2006,12,14,09,26,11.70
2006,12,14,09,27,14.50
2006,12,14,09,28,8.50
2006,12,14,09,29,11.00
2006,12,14,09,30,11.30
2006,12,14,09,31,14.40
2006,12,14,09,32,11.20
2006,12,14,09,33,16.00
2006,12,14,09,34,12.10
2006,12,14,09,35,9.20
2006,12,14,09,36,8.10
2006,12,14,09,37,8.10
2006,12,14,09,38,12.20
2006,12,14,09,39,13.70
2006,12,14,09,40,15.20
2006,12,14,09,41,15.80
2006,12,14,09,42,12.20
2006,12,14,09,43,12.30
2006,12,14,09,44,14.20
2006,12,14,09,45,12.20
2006,12,14,09,46,14.40
2006,12,14,09,47,10.60
2006,12,14,09,48,15.10
2006,12,14,09,49,15.60
2006,12,14,09,50,22.60
2006,12,14,09,51,12.40
2006,12,14,09,52,14.50
2006,12,14,09,53,11.50
2006,12,14,09,54,11.40
2006,12,14,09,55,14.60
2006,12,14,09,56,14.10
2006,12,14,09,57,14.10
2006,12,14,09,58,14.90
2006,12,14,09,59,15.50
2006,12,14,10,00,10.00
2006,12,14,10,01,17.60
2006,12,14,10,02,14.90
2006,12,14,10,03,13.00
2006,12,14,10,04,11.60
2006,12,14,10,05,14.60
2006,12,14,10,06,16.20
2006,12,14,10,07,11.60
2006,12,14,10,08,13.60
2006,12,14,10,09,16.70
2006,12,14,10,10,17.30
2006,12,14,10,11,17.60
2006,12,14,10,12,17.10
2006,12,14,10,13,19.10
2006,12,14,10,14,16.40
2006,12,14,10,15,13.50
2006,12,14,10,16,16.30
2006,12,14,10,17,13.50
2006,12,14,10,18,11.60
2006,12,14,10,19,13.90
2006,12,14,10,20,14.50
2006,12,14,10,21,21.80
2006,12,14,10,22,19.20
2006,12,14,10,23,14.70
2006,12,14,10,24,19.70
2006,12,14,10,25,17.60
2006,12,14,10,26,15.80
2006,12,14,10,27,13.60
2006,12,14,10,28,11.90
2006,12,14,10,29,17.10
2006,12,14,10,30,15.30
2006,12,14,10,31,17.80
2006,12,14,10,32,20.10
2006,12,14,10,33,17.90
2006,12,14,10,34,16.30
2006,12,14,10,35,15.40
2006,12,14,10,36,13.60
2006,12,14,10,37,13.70
2006,12,14,10,38,19.60
2006,12,14,10,39,15.40
2006,12,14,10,40,15.90
2006,12,14,10,41,16.70
2006,12,14,10,42,18.60
2006,12,14,10,43,17.20
2006,12,14,10,44,15.70
2006,12,14,10,45,16.20
2006,12,14,10,46,22.40
2006,12,14,10,47,17.80
2006,12,14,10,48,18.30
2006,12,14,10,49,12.20
2006,12,14,10,50,14.90
2006,12,14,10,51,13.20
2006,12,14,10,52,10.80
2006,12,14,10,53,13.00
2006,12,14,10,54,11.30
2006,12,14,10,55,15.30
2006,12,14,10,56,13.30
2006,12,14,10,57,11.40
2006,12,14,10,58,15.10
2006,12,14,10,59,14.90
2006,12,14,11,00,11.10
2006,12,14,11,01,10.00
2006,12,14,11,02,16.80
2006,12,14,11,03,11.00
2006,12,14,11,04,12.30
2006,12,14,11,05,9.90
2006,12,14,11,06,13.60
2006,12,14,11,07,10.90
2006,12,14,11,08,12.70
2006,12,14,11,09,10.30
2006,12,14,11,10,8.10
2006,12,14,11,11,15.80
2006,12,14,11,12,11.10
2006,12,14,11,13,10.10
2006,12,14,11,14,15.30
2006,12,14,11,15,12.40
2006,12,14,11,16,11.60
2006,12,14,11,17,9.40
2006,12,14,11,18,16.30
2006,12,14,11,19,11.30
2006,12,14,11,20,16.00
2006,12,14,11,21,11.30
2006,12,14,11,22,10.70
2006,12,14,11,23,8.00
2006,12,14,11,24,10.10
2006,12,14,11,25,8.90
2006,12,14,11,26,11.10
2006,12,14,11,27,11.90
2006,12,14,11,28,9.30
2006,12,14,11,29,9.00
2006,12,14,11,30,12.60
2006,12,14,11,31,15.20
2006,12,14,11,32,15.90
2006,12,14,11,33,9.50
2006,12,14,11,34,10.70
2006,12,14,11,35,10.00
2006,12,14,11,36,12.90
2006,12,14,11,37,12.60
2006,12,14,11,38,16.30
2006,12,14,11,39,17.60
2006,12,14,11,40,11.00
2006,12,14,11,41,10.50
2006,12,14,11,42,11.60
2006,12,14,11,43,12.50
2006,12,14,11,44,9.10
2006,12,14,11,45,9.40
2006,12,14,11,46,6.70
2006,12,14,11,47,14.70
2006,12,14,11,48,9.20
2006,12,14,11,49,14.20
2006,12,14,11,50,11.50
2006,12,14,11,51,6.40
2006,12,14,11,52,7.00
2006,12,14,11,53,5.50
2006,12,14,11,54,4.80
2006,12,14,11,55,3.20
2006,12,14,11,56,7.00
2006,12,14,11,57,6.90
2006,12,14,11,58,6.10
2006,12,14,11,59,6.30
2006,12,14,12,00,8.90
2006,12,14,12,01,15.60
2006,12,14,12,02,13.30
2006,12,14,12,03,13.40
2006,12,14,12,04,20.80
2006,12,14,12,05,10.30
2006,12,14,12,06,12.20
2006,12,14,12,07,10.20
2006,12,14,12,08,7.20
2006,12,14,12,09,7.30
2006,12,14,12,10,6.80
2006,12,14,12,11,7.50
2006,12,14,12,12,9.00
2006,12,14,12,13,10.50
2006,12,14,12,14,12.40
2006,12,14,12,15,12.50
2006,12,14,12,16,11.40
2006,12,14,12,17,11.30
2006,12,14,12,18,11.30
2006,12,14,12,19,13.40
2006,12,14,12,20,13.40
2006,12,14,12,21,13.90
2006,12,14,12,22,13.40
2006,12,14,12,23,10.60
2006,12,14,12,24,10.70
2006,12,14,12,25,14.40
2006,12,14,12,26,13.70
2006,12,14,12,27,15.30
2006,12,14,12,28,11.90
2006,12,14,12,29,12.50
2006,12,14,12,30,11.40
2006,12,14,12,31,10.30
2006,12,14,12,32,9.60
2006,12,14,12,33,9.60
2006,12,14,12,34,9.60
2006,12,14,12,35,9.60
2006,12,14,12,36,9.10
2006,12,14,12,37,11.60
2006,12,14,12,38,10.40
2006,12,14,12,39,9.00
2006,12,14,12,40,10.60
2006,12,14,12,41,9.90
2006,12,14,12,42,11.50
2006,12,14,12,43,8.80
2006,12,14,12,44,7.30
2006,12,14,12,45,7.20
2006,12,14,12,46,8.40
2006,12,14,12,47,9.90
2006,12,14,12,48,10.80
2006,12,14,12,49,7.60
2006,12,14,12,50,8.50
2006,12,14,12,51,10.80
2006,12,14,12,52,14.50
2006,12,14,12,53,14.50
2006,12,14,12,54,7.20
2006,12,14,12,55,4.20
2006,12,14,12,56,4.30
2006,12,14,12,57,7.10
2006,12,14,12,58,8.50
2006,12,14,12,59,3.70
2006,12,14,13,00,4.20
2006,12,14,13,01,3.80
2006,12,14,13,02,3.80
2006,12,14,13,03,3.50
2006,12,14,13,04,4.00
2006,12,14,13,05,4.90
2006,12,14,13,06,4.80
2006,12,14,13,07,7.00
2006,12,14,13,08,8.40
2006,12,14,13,09,7.00
2006,12,14,13,10,7.20
2006,12,14,13,11,6.20
2006,12,14,13,12,7.20
2006,12,14,13,13,7.40
2006,12,14,13,14,4.40
2006,12,14,13,15,3.40
2006,12,14,13,16,3.70
2006,12,14,13,17,5.60
2006,12,14,13,18,6.10
2006,12,14,13,19,5.70
2006,12,14,13,20,3.90
2006,12,14,13,21,4.40
2006,12,14,13,22,8.10
2006,12,14,13,23,9.50
2006,12,14,13,24,12.10
2006,12,14,13,25,9.60
2006,12,14,13,26,8.10
2006,12,14,13,27,11.20
2006,12,14,13,28,16.60
2006,12,14,13,29,12.60
2006,12,14,13,30,13.80
2006,12,14,13,31,6.50
2006,12,14,13,32,7.80
2006,12,14,13,33,8.10
2006,12,14,13,34,7.20
2006,12,14,13,35,10.30
2006,12,14,13,36,13.80
2006,12,14,13,37,9.30
2006,12,14,13,38,12.10
2006,12,14,13,39,11.10
2006,12,14,13,40,14.80
2006,12,14,13,41,9.30
2006,12,14,13,42,8.40
2006,12,14,13,43,13.30
2006,12,14,13,44,14.70
2006,12,14,13,45,10.50
2006,12,14,13,46,12.70
2006,12,14,13,47,16.60
2006,12,14,13,48,16.80
2006,12,14,13,49,11.60
2006,12,14,13,50,13.20
2006,12,14,13,51,12.70
2006,12,14,13,52,16.70
2006,12,14,13,53,8.10
2006,12,14,13,54,13.70
2006,12,14,13,55,14.50
2006,12,14,13,56,8.30
2006,12,14,13,57,8.40
2006,12,14,13,58,4.30
2006,12,14,13,59,12.30
2006,12,14,14,00,7.90
2006,12,14,14,01,5.80
2006,12,14,14,02,9.10
2006,12,14,14,03,9.40
2006,12,14,14,04,9.90
2006,12,14,14,05,7.40
2006,12,14,14,06,9.80
2006,12,14,14,07,8.80
2006,12,14,14,08,8.10
2006,12,14,14,09,6.40
2006,12,14,14,10,6.40
2006,12,14,14,11,6.40
2006,12,14,14,12,6.40
2006,12,14,14,13,8.00
2006,12,14,14,14,12.20
2006,12,14,14,15,13.50
2006,12,14,14,16,10.90
2006,12,14,14,17,8.10
2006,12,14,14,18,13.70
2006,12,14,14,19,12.00
2006,12,14,14,20,12.40
2006,12,14,14,21,8.20
2006,12,14,14,22,8.10
2006,12,14,14,23,6.70
2006,12,14,14,24,6.20
2006,12,14,14,25,10.90
2006,12,14,14,26,12.70
2006,12,14,14,27,13.30
2006,12,14,14,28,6.20
2006,12,14,14,29,9.40
2006,12,14,14,30,6.50
2006,12,14,14,31,5.10
2006,12,14,14,32,7.60
2006,12,14,14,33,9.20
2006,12,14,14,34,8.60
2006,12,14,14,35,4.80
2006,12,14,14,36,6.00
2006,12,14,14,37,6.30
2006,12,14,14,38,3.20
2006,12,14,14,39,3.20
2006,12,14,14,40,6.40
2006,12,14,14,41,6.40
2006,12,14,14,42,3.60
2006,12,14,14,43,3.70
2006,12,14,14,44,6.50
2006,12,14,14,45,6.20
2006,12,14,14,46,9.70
2006,12,14,14,47,10.50
2006,12,14,14,48,10.10
2006,12,14,14,49,13.10
2006,12,14,14,50,11.90
2006,12,14,14,51,14.60
2006,12,14,14,52,15.40
2006,12,14,14,53,14.60
2006,12,14,14,54,18.00
2006,12,14,14,55,17.00
2006,12,14,14,56,12.50
2006,12,14,14,57,12.60
2006,12,14,14,58,12.20
2006,12,14,14,59,11.30
2006,12,14,15,00,16.10
2006,12,14,15,01,16.30
2006,12,14,15,02,16.10
2006,12,14,15,03,13.90
2006,12,14,15,04,11.40
2006,12,14,15,05,11.90
2006,12,14,15,06,9.30
2006,12,14,15,07,9.70
2006,12,14,15,08,6.80
2006,12,14,15,09,6.40
2006,12,14,15,10,7.50
2006,12,14,15,11,6.20
2006,12,14,15,12,9.10
2006,12,14,15,13,8.80
2006,12,14,15,14,10.10
2006,12,14,15,15,7.60
2006,12,14,15,16,7.70
2006,12,14,15,17,8.10
2006,12,14,15,18,6.70
2006,12,14,15,19,5.60
2006,12,14,15,20,7.10
2006,12,14,15,21,5.80
2006,12,14,15,22,4.10
2006,12,14,15,23,4.30
2006,12,14,15,24,6.40
2006,12,14,15,25,4.80
2006,12,14,15,26,5.20
2006,12,14,15,27,4.60
2006,12,14,15,28,5.00
2006,12,14,15,29,5.70
2006,12,14,15,30,6.50
2006,12,14,15,31,6.80
2006,12,14,15,32,8.90
2006,12,14,15,33,7.90
2006,12,14,15,34,8.90
2006,12,14,15,35,6.00
2006,12,14,15,36,5.90
2006,12,14,15,37,6.80
2006,12,14,15,38,5.10
2006,12,14,15,39,6.00
2006,12,14,15,40,6.40
2006,12,14,15,41,5.00
2006,12,14,15,42,8.30
2006,12,14,15,43,6.40
2006,12,14,15,44,6.80
2006,12,14,15,45,5.80
2006,12,14,15,46,3.90
2006,12,14,15,47,3.10
2006,12,14,15,48,2.80
2006,12,14,15,49,3.80
2006,12,14,15,50,5.00
2006,12,14,15,51,4.80
2006,12,14,15,52,4.80
2006,12,14,15,53,4.60
2006,12,14,15,54,4.70
2006,12,14,15,55,3.40
2006,12,14,15,56,2.30
2006,12,14,15,57,3.20
2006,12,14,15,58,6.10
2006,12,14,15,59,5.70
2006,12,14,16,00,5.80
2006,12,14,16,01,6.00
2006,12,14,16,02,6.30
2006,12,14,16,03,5.40
2006,12,14,16,04,6.30
2006,12,14,16,05,7.00
2006,12,14,16,06,5.10
2006,12,14,16,07,3.30
2006,12,14,16,08,3.70
2006,12,14,16,09,4.80
2006,12,14,16,10,5.50
2006,12,14,16,11,6.50
2006,12,14,16,12,5.80
2006,12,14,16,13,4.90
2006,12,14,16,14,3.10
2006,12,14,16,15,4.60
2006,12,14,16,16,3.20
2006,12,14,16,17,2.80
2006,12,14,16,18,4.10
2006,12,14,16,19,3.60
2006,12,14,16,20,4.20
2006,12,14,16,21,5.60
2006,12,14,16,22,5.20
2006,12,14,16,23,7.30
2006,12,14,16,24,6.00
2006,12,14,16,25,4.80
2006,12,14,16,26,4.80
2006,12,14,16,27,3.90
2006,12,14,16,28,2.60
2006,12,14,16,29,2.50
2006,12,14,16,30,3.90
2006,12,14,16,31,0.50
2006,12,14,16,32,0.90
2006,12,14,16,33,1.80
2006,12,14,16,34,3.20
2006,12,14,16,35,4.40
2006,12,14,16,36,6.10
2006,12,14,16,37,5.10
2006,12,14,16,38,7.20
2006,12,14,16,39,4.70
2006,12,14,16,40,5.50
2006,12,14,16,41,6.30
2006,12,14,16,42,6.00
2006,12,14,16,43,8.40
2006,12,14,16,44,8.30
2006,12,14,16,45,6.80
2006,12,14,16,46,10.10
2006,12,14,16,47,7.00
2006,12,14,16,48,7.40
2006,12,14,16,49,10.20
2006,12,14,16,50,10.40
2006,12,14,16,51,8.00
2006,12,14,16,52,5.70
2006,12,14,16,53,8.20
2006,12,14,16,54,10.20
2006,12,14,16,55,7.90
2006,12,14,16,56,10.80
2006,12,14,16,57,9.50
2006,12,14,16,58,8.80
2006,12,14,16,59,11.20
2006,12,14,17,00,9.30
2006,12,14,17,01,8.30
2006,12,14,17,02,5.30
2006,12,14,17,03,7.50
2006,12,14,17,04,7.30
2006,12,14,17,05,6.00
2006,12,14,17,06,6.90
2006,12,14,17,07,7.20
2006,12,14,17,08,7.20
2006,12,14,17,09,4.40
2006,12,14,17,10,4.80
2006,12,14,17,11,6.50
2006,12,14,17,12,7.80
2006,12,14,17,13,5.30
2006,12,14,17,14,5.50
2006,12,14,17,15,4.70
2006,12,14,17,16,6.90
2006,12,14,17,17,6.40
2006,12,14,17,18,4.30
2006,12,14,17,19,8.80
2006,12,14,17,20,4.70
2006,12,14,17,21,4.70
2006,12,14,17,22,8.20
2006,12,14,17,23,4.30
2006,12,14,17,24,4.50
2006,12,14,17,25,3.20
2006,12,14,17,26,3.20
2006,12,14,17,27,3.20
2006,12,14,17,28,3.20
2006,12,14,17,29,2.20
2006,12,14,17,30,0.10
2006,12,14,17,31,0.10
2006,12,14,17,32,0.90
2006,12,14,17,33,0.40
2006,12,14,17,34,0.60
2006,12,14,17,35,2.70
2006,12,14,17,36,3.90
2006,12,14,17,37,3.90
2006,12,14,17,38,3.60
2006,12,14,17,39,2.90
2006,12,14,17,40,2.90
2006,12,14,17,41,1.10
2006,12,14,17,42,0.10
2006,12,14,17,43,0.80
2006,12,14,17,44,4.20
2006,12,14,17,45,6.60
2006,12,14,17,46,4.70
2006,12,14,17,47,5.20
2006,12,14,17,48,1.70
2006,12,14,17,49,1.60
2006,12,14,17,50,1.60
2006,12,14,17,51,1.90